[[{"header":{"parameterUnit":"m.s-1","parameterCategory":1,"la1":30.2991,"la2":30.254,"lo1":-89.0895,"lo2":-89.0444,"dy":0.0017,"dx":0.0017,"nx":28,"ny":28,"refTime":"2024-02-16T09:00:00:Z","depth":0,"parameterNumber":2,"parameterNumberName":"U-component_of_WINDS"},"data":[0,0,0,0,0,0,0,0,0,0,0,0,0,0,0,0,0,0,0,0,0,0,0,0,0,0,0,0,0,0,0,0,0,0,0,0,0,0,0,0,0,0,0,0,0,0,0,0,0,0,0,0,0,0,0,0,0,0,-1.0349,-1.0351,0,-1.0509,-1.0511,-1.0513,-1.0544,-1.0543,-1.0542,-1.054,-1.0709,-1.0714,-1.072,0,0,0,0,0,0,0,0,0,0,0,0,0,-1.0078,-1.0083,-1.0349,-1.0351,-1.0353,-1.0509,-1.0511,-1.0513,-1.0544,-1.0543,-1.0541,-1.054,-1.0707,-1.0714,-1.072,0,0,0,0,0,0,0,0,0,0,0,0,0,-1.0212,-1.0084,-1.0349,-1.0387,-1.0392,-1.0508,-1.0511,-1.0514,-1.0545,-1.0543,-1.0541,-1.0539,-1.0705,-1.0713,-1.0721,-1.0811,0,0,-1.0747,-1.0751,0,0,0,0,0,0,0,0,-1.0205,-1.0222,-1.038,-1.0385,-1.0391,-1.0505,-1.0477,-1.0614,-1.0545,-1.0487,-1.054,-1.0538,-1.0643,-1.0656,-1.069,-1.0819,-1.0826,-1.0748,-1.0753,-1.0757,-1.0759,0,0,0,0,0,0,0,-1.0195,-1.0216,-1.0412,-1.0382,-1.0389,-1.0399,-1.0416,-1.0503,-1.0574,-1.0492,-1.0495,-1.0513,-1.0645,-1.0682,-1.0695,-1.0829,-1.0748,-1.0755,-1.0761,-1.0764,-1.1043,-1.1045,0,0,0,0,0,0,-1.0178,-1.0208,-1.0407,-1.0417,-1.0291,-1.0405,-1.0424,-1.047,-1.0573,-1.0586,-1.0514,-1.0514,-1.0669,-1.0685,-1.0701,-1.0814,-1.0757,-1.0765,-1.077,-1.1041,-1.1044,-1.1046,0,0,0,0,0,0,-1.0172,-1.0196,-1.0401,-1.0313,-1.034,-1.0412,-1.0463,-1.0474,-1.0511,-1.0589,-1.0603,-1.0538,-1.0668,-1.0689,-1.0784,-1.0821,-1.0768,-1.0776,-1.1038,-1.1042,-1.1045,-1.1041,0,0,0,0,0,0,-1.0165,-1.0194,-1.0227,-1.0314,-1.0345,-1.0479,-1.0465,-1.0479,-1.0525,-1.0526,-1.0616,-1.0629,-1.0668,-1.0771,-1.0792,-1.0831,-1.0783,-1.1035,-1.104,-1.1044,-1.1039,-1.1044,-1.1049,0,0,0,0,0,-1.0155,-1.022,-1.0228,-1.0252,-1.0387,-1.0481,-1.0499,-1.0541,-1.0527,-1.0563,-1.0614,-1.0626,-1.0813,-1.0781,-1.0805,-1.0847,-1.1033,-1.1038,-1.1043,-1.1036,-1.1043,-1.1049,0,0,0,0,0,0,-1.0136,-1.0232,-1.0242,-1.0337,-1.0401,-1.0486,-1.0532,-1.0547,-1.0617,-1.0615,-1.0666,-1.0687,-1.0779,-1.0823,-1.0785,-1.0941,-1.0923,-1.0933,-1.0909,-1.0916,-1.0921,-1.0909,-1.079,0,0,0,0,0,-1.0143,-1.0209,-1.029,-1.0366,-1.0398,-1.0459,-1.0502,-1.0529,-1.0598,-1.0625,-1.0683,-1.0751,-1.0826,-1.0873,-1.0946,-1.1045,-1.1067,-1.1087,-1.1092,-1.1096,-1.1104,-1.1163,-1.1173,-1.1063,-1.1063,-1.1063,0,0,-1.0158,-1.0218,-1.0257,-1.0364,-1.0417,-1.0487,-1.0482,-1.0555,-1.0609,-1.0637,-1.073,-1.0776,-1.0855,-1.0953,-1.0999,-1.0992,-1.114,-1.1103,-1.1105,-1.1112,-1.1169,-1.1179,-1.1189,-1.1067,-1.1066,-1.1066,0,0,-1.0221,-1.0272,-1.0342,-1.0395,-1.0475,-1.0516,-1.0533,-1.0617,-1.0648,-1.0742,-1.0766,-1.0831,-1.0957,-1.1013,-1.1059,-1.1146,-1.1161,-1.1169,-1.1196,-1.1253,-1.1261,-1.1269,-1.1302,-1.1313,-1.1177,-1.1177,-1.1177,0,-1.0229,-1.0334,-1.0376,-1.045,-1.0497,-1.0525,-1.0598,-1.0648,-1.0748,-1.0781,-1.0772,-1.0933,-1.0988,-1.1101,-1.1122,-1.1157,-1.118,-1.1158,-1.1256,-1.1265,-1.1273,-1.1305,-1.1317,-1.1177,-1.1177,-1.1177,-1.1177,0,-1.0342,-1.0414,-1.0461,-1.0556,-1.0609,-1.0681,-1.0738,-1.0787,-1.081,-1.0853,-1.095,-1.1018,-1.1106,-1.1135,-1.1159,-1.1252,-1.1246,-1.1246,-1.1228,-1.1283,-1.1314,-1.1326,-1.1178,-1.1178,-1.1178,-1.1177,0,0,-1.0396,-1.0514,-1.0531,-1.0575,-1.0666,-1.0724,-1.08,-1.0885,-1.0926,-1.0995,-1.1061,-1.1169,-1.117,-1.1222,-1.1253,-1.1302,-1.1369,-1.1296,-1.1299,-1.1308,-1.1479,-1.1478,-1.1491,-1.1379,-1.1382,-1.1384,-1.1472,0,-1.047,-1.0603,-1.0645,-1.0757,-1.0826,-1.0855,-1.0922,-1.0986,-1.1029,-1.1096,-1.1144,-1.122,-1.1215,-1.1246,-1.1296,-1.135,-1.1404,-1.1344,-1.1443,-1.1446,-1.1422,-1.1507,-1.1506,-1.1586,-1.1484,-1.1486,-1.1488,0,-1.0574,-1.0644,-1.0762,-1.0847,-1.0877,-1.0935,-1.1018,-1.1081,-1.1156,-1.1184,-1.1242,-1.127,-1.1352,-1.133,-1.1446,-1.1405,-1.1449,-1.1481,-1.1486,-1.1496,-1.147,-1.1521,-1.1613,-1.1625,-1.1507,-1.1506,-1.1504,0,-1.0603,-1.0726,-1.0814,-1.0851,-1.0951,-1.0992,-1.1036,-1.1109,-1.1158,-1.1232,-1.1265,-1.1347,-1.1392,-1.1456,-1.1506,-1.1485,-1.1619,-1.16,-1.1646,-1.1645,-1.1672,-1.167,-1.1773,-1.17,-1.1699,-1.1699,-1.1699,0,-1.0682,-1.0753,-1.0828,-1.0882,-1.0964,-1.1014,-1.1095,-1.1141,-1.1206,-1.1271,-1.1303,-1.1364,-1.1426,-1.1496,-1.1536,-1.1627,-1.1647,-1.1674,-1.1684,-1.1671,-1.1668,-1.17,-1.1696,-1.1703,-1.1702,-1.1701,-1.1701,0,-1.0727,-1.078,-1.0877,-1.0965,-1.0989,-1.1046,-1.1122,-1.1177,-1.1222,-1.1304,-1.1326,-1.1398,-1.1482,-1.1538,-1.1646,-1.1674,-1.1773,-1.1781,-1.1747,-1.1752,-1.1795,-1.179,-1.1922,-1.1943,-1.1855,-1.1856,-1.1856,0,-1.0774,-1.083,-1.0923,-1.0968,-1.1012,-1.1085,-1.1135,-1.1187,-1.1239,-1.133,-1.1375,-1.1461,-1.1532,-1.1667,-1.1729,-1.1813,-1.1824,-1.1865,-1.1837,-1.1823,-1.1826,-1.1822,-1.1829,-1.1869,-1.187,-1.187,-1.1871,0,-1.0852,-1.0876,-1.0946,-1.1027,-1.1086,-1.1152,-1.1218,-1.1254,-1.1318,-1.1375,-1.1461,-1.1517,-1.1628,-1.1714,-1.1804,-1.1852,-1.1873,-1.1879,-1.1894,-1.1882,-1.186,-1.1874,-1.176,-1.1876,-1.1875,-1.1875,-1.1875,-1.1874,-1.09,-1.0952,-1.1026,-1.1105,-1.116,-1.1222,-1.1278,-1.133,-1.1403,-1.1496,-1.1523,-1.1613,-1.169,-1.1813,-1.1863,-1.1936,-1.1932,-1.1953,-1.1959,-1.1964,-1.1965,-1.1848,-1.1952,-1.1952,-1.1952,-1.1952,-1.1952,0,-1.0981,-1.103,-1.1102,-1.1194,-1.1256,-1.1269,-1.1344,-1.1396,-1.1475,-1.1544,-1.1614,-1.1714,-1.1799,-1.1869,-1.1956,-1.2002,-1.2014,-1.2023,-1.2021,-1.2032,-1.1962,-1.1941,-1.2012,-1.2012,-1.2012,-1.2012,-1.2012,-1.2012,-1.103,-1.1119,-1.1152,-1.127,-1.132,-1.1407,-1.1449,-1.1508,-1.1563,-1.1673,-1.1743,-1.1788,-1.1859,-1.1952,-1.2031,-1.205,-1.2081,-1.2088,-1.2109,-1.2043,-1.2036,-1.203,-1.201,-1.2095,-1.2095,-1.2173,-1.2174,-1.2174]},{"header":{"parameterUnit":"m.s-1","parameterCategory":1,"la1":30.2991,"la2":30.254,"lo1":-89.0895,"lo2":-89.0444,"dy":0.0017,"dx":0.0017,"nx":28,"ny":28,"refTime":"2024-02-16T09:00:00:Z","depth":0,"parameterNumber":3,"parameterNumberName":"V-component_of_WINDS"},"data":[0,0,0,0,0,0,0,0,0,0,0,0,0,0,0,0,0,0,0,0,0,0,0,0,0,0,0,0,0,0,0,0,0,0,0,0,0,0,0,0,0,0,0,0,0,0,0,0,0,0,0,0,0,0,0,0,0,0,3.367,3.3671,0,3.3741,3.3742,3.3742,3.3725,3.3724,3.3723,3.3721,3.3791,3.3794,3.3797,0,0,0,0,0,0,0,0,0,0,0,0,0,3.3518,3.3521,3.367,3.3671,3.3672,3.3741,3.3742,3.3743,3.3725,3.3724,3.3722,3.3721,3.379,3.3793,3.3797,0,0,0,0,0,0,0,0,0,0,0,0,0,3.3586,3.3522,3.367,3.3672,3.3673,3.374,3.3742,3.3743,3.3726,3.3724,3.3722,3.372,3.3788,3.3793,3.3798,3.3867,0,0,3.3812,3.3814,0,0,0,0,0,0,0,0,3.3582,3.3591,3.3671,3.3672,3.3673,3.3722,3.3713,3.3784,3.3726,3.3706,3.3721,3.3719,3.3769,3.3775,3.3793,3.387,3.3873,3.3812,3.3815,3.3817,3.3818,0,0,0,0,0,0,0,3.3577,3.3588,3.3698,3.3672,3.3673,3.3668,3.3675,3.3727,3.3748,3.3707,3.3706,3.3715,3.377,3.3789,3.3795,3.3874,3.3812,3.3816,3.3819,3.3821,3.401,3.4013,0,0,0,0,0,0,3.3572,3.3584,3.3696,3.37,3.3622,3.3672,3.3681,3.3708,3.3747,3.3751,3.3717,3.3714,3.3782,3.3789,3.3797,3.388,3.3817,3.3821,3.3824,3.4008,3.4011,3.4013,0,0,0,0,0,0,3.3569,3.3582,3.3693,3.3642,3.3656,3.3677,3.3708,3.3711,3.373,3.3754,3.3758,3.3732,3.378,3.379,3.385,3.3882,3.3824,3.3828,3.4006,3.4009,3.4012,3.4047,0,0,0,0,0,0,3.3564,3.3581,3.3609,3.3643,3.3659,3.3746,3.3711,3.3714,3.3738,3.3735,3.377,3.3774,3.378,3.3843,3.3854,3.3887,3.3831,3.4003,3.4007,3.4011,3.4043,3.4051,3.4058,0,0,0,0,0,3.3559,3.3615,3.361,3.3624,3.3694,3.3748,3.3757,3.3763,3.3741,3.3768,3.3784,3.3773,3.3877,3.3849,3.3862,3.3897,3.4001,3.4006,3.4011,3.4039,3.4049,3.4057,0,0,0,0,0,0,3.3584,3.362,3.3614,3.3684,3.3713,3.3745,3.3779,3.3773,3.3808,3.3804,3.3809,3.3817,3.3877,3.3893,3.3861,3.3965,3.3935,3.3943,3.3953,3.3962,3.397,3.3964,3.3835,0,0,0,0,0,3.3597,3.3639,3.3668,3.3726,3.3741,3.3758,3.3782,3.3784,3.3814,3.3826,3.3846,3.3874,3.3913,3.3939,3.3976,3.4045,3.4051,3.4075,3.4083,3.4089,3.4095,3.4131,3.4142,3.403,3.403,3.403,0,0,3.3626,3.3651,3.3677,3.3732,3.3755,3.3797,3.3768,3.3814,3.3845,3.3832,3.3889,3.3905,3.3937,3.4001,3.403,3.4016,3.4127,3.4095,3.41,3.4103,3.4137,3.4148,3.4157,3.4033,3.4033,3.4032,0,0,3.3698,3.3722,3.3773,3.3796,3.3831,3.3841,3.3854,3.3886,3.3896,3.3954,3.3945,3.3981,3.4048,3.4071,3.4092,3.4172,3.4163,3.4184,3.4223,3.4258,3.4267,3.4274,3.4302,3.4311,3.4191,3.4191,3.4191,0,3.3729,3.3793,3.3799,3.3846,3.387,3.3861,3.3911,3.3933,3.3978,3.3994,3.3978,3.4061,3.4083,3.4151,3.4171,3.4188,3.4201,3.418,3.4265,3.4273,3.428,3.4306,3.4317,3.4193,3.4193,3.4192,3.4192,0,3.3828,3.3872,3.3909,3.3953,3.3981,3.4029,3.4041,3.4069,3.4068,3.408,3.4137,3.4163,3.4204,3.4221,3.4221,3.4289,3.4279,3.4264,3.4234,3.4293,3.4317,3.4328,3.4196,3.4195,3.4195,3.4194,0,0,3.3919,3.3965,3.3978,3.3997,3.4035,3.4069,3.4116,3.4157,3.418,3.4211,3.4249,3.4306,3.4292,3.4315,3.4318,3.4349,3.4409,3.433,3.433,3.4342,3.4484,3.4494,3.4505,3.4403,3.4405,3.4407,3.448,0,3.3994,3.4078,3.4084,3.4159,3.4199,3.4191,3.4231,3.4258,3.427,3.4305,3.4317,3.4357,3.4337,3.435,3.4381,3.4395,3.4437,3.439,3.4437,3.4439,3.4429,3.4518,3.453,3.4598,3.449,3.4492,3.4493,0,3.4093,3.4127,3.4207,3.4237,3.4254,3.4291,3.4328,3.4362,3.4391,3.4398,3.4423,3.4421,3.4468,3.4437,3.45,3.4468,3.4488,3.4497,3.45,3.4504,3.4469,3.4523,3.462,3.463,3.4508,3.4507,3.4506,0,3.415,3.4216,3.4271,3.4288,3.4325,3.4351,3.4368,3.4395,3.4419,3.4451,3.4467,3.4504,3.4524,3.4552,3.4559,3.4537,3.4622,3.4592,3.4628,3.4627,3.4645,3.4644,3.4746,3.466,3.466,3.466,3.466,0,3.4233,3.4281,3.4297,3.4331,3.4384,3.439,3.4443,3.4458,3.4482,3.4517,3.4512,3.4546,3.4554,3.4588,3.4594,3.4645,3.4654,3.466,3.466,3.466,3.4659,3.4672,3.4667,3.4663,3.4662,3.4661,3.4661,0,3.4305,3.4318,3.4377,3.4408,3.4416,3.4454,3.4479,3.4511,3.4522,3.4567,3.4578,3.4595,3.4635,3.4646,3.4694,3.4697,3.4757,3.4754,3.4747,3.4747,3.4781,3.4777,3.4894,3.4909,3.4814,3.4815,3.4816,0,3.4356,3.4393,3.4428,3.4451,3.4469,3.4508,3.4532,3.4539,3.4564,3.46,3.4627,3.4667,3.4699,3.4763,3.4779,3.4815,3.4812,3.485,3.4817,3.4815,3.4811,3.4808,3.4811,3.4856,3.4857,3.4858,3.4859,0,3.4446,3.445,3.4486,3.4524,3.4553,3.4583,3.4611,3.4631,3.4641,3.467,3.4711,3.4736,3.4785,3.4823,3.486,3.4875,3.4868,3.4869,3.4879,3.4878,3.4872,3.4874,3.4763,3.4866,3.4865,3.4865,3.4865,3.4864,3.4509,3.4541,3.4569,3.4609,3.4631,3.4657,3.4688,3.4703,3.4738,3.4779,3.478,3.4825,3.4851,3.49,3.4917,3.4951,3.4939,3.4954,3.4957,3.4961,3.4963,3.4868,3.4958,3.4958,3.4958,3.4957,3.4957,0,3.4597,3.4615,3.4651,3.4691,3.4722,3.4713,3.4744,3.477,3.4809,3.4835,3.4867,3.4913,3.495,3.4969,3.5006,3.5029,3.5027,3.5038,3.5036,3.5039,3.4972,3.4959,3.504,3.504,3.504,3.504,3.504,3.504,3.4647,3.47,3.4707,3.477,3.4788,3.4832,3.485,3.4873,3.4894,3.4946,3.4977,3.4989,3.5012,3.505,3.5083,3.5088,3.5101,3.5114,3.5116,3.5053,3.5044,3.5036,3.5024,3.5117,3.5117,3.5181,3.5181,3.5182]}]]